[[{"header":{"parameterUnit":"m.s-1","parameterCategory":1,"la1":30.2991,"la2":30.254,"lo1":-89.0895,"lo2":-89.0444,"dy":0.0017,"dx":0.0017,"nx":28,"ny":28,"refTime":"2023-09-27T09:00:00:Z","depth":0,"parameterNumber":2,"parameterNumberName":"U-component_of_WINDS"},"data":[0,0,0,0,0,0,0,0,0,0,0,0,0,0,0,0,0,0,0,0,0,0,0,0,0,0,0,0,0,0,0,0,0,0,0,0,0,0,0,0,0,0,0,0,0,0,0,0,0,0,0,0,0,0,0,0,0,0,-5.1039,-5.1039,0,-5.1101,-5.1101,-5.1102,-5.0949,-5.0944,-5.0939,-5.0934,-5.0999,-5.1005,-5.1011,0,0,0,0,0,0,0,0,0,0,0,0,0,-5.0787,-5.0793,-5.1038,-5.1039,-5.104,-5.11,-5.1101,-5.1102,-5.0949,-5.0944,-5.0938,-5.0932,-5.0997,-5.1004,-5.1011,0,0,0,0,0,0,0,0,0,0,0,0,0,-5.0878,-5.0795,-5.1038,-5.0971,-5.0966,-5.11,-5.1101,-5.1102,-5.0951,-5.0943,-5.0936,-5.0929,-5.0994,-5.1003,-5.1012,-5.1215,0,0,-5.1041,-5.1045,0,0,0,0,0,0,0,0,-5.0873,-5.0887,-5.098,-5.0976,-5.097,-5.1009,-5.1036,-5.114,-5.0952,-5.0956,-5.0934,-5.0926,-5.1008,-5.1016,-5.1043,-5.1218,-5.1221,-5.1042,-5.1047,-5.1051,-5.1054,0,0,0,0,0,0,0,-5.0867,-5.0884,-5.1063,-5.0982,-5.0976,-5.0938,-5.0942,-5.1055,-5.1022,-5.0955,-5.0945,-5.0954,-5.1004,-5.1035,-5.1044,-5.1222,-5.1041,-5.105,-5.1056,-5.1059,-5.1566,-5.1574,0,0,0,0,0,0,-5.0869,-5.0879,-5.1061,-5.1065,-5.0903,-5.0948,-5.0953,-5.1004,-5.1021,-5.1016,-5.096,-5.0947,-5.1022,-5.1033,-5.1046,-5.1284,-5.1051,-5.106,-5.1065,-5.1558,-5.1568,-5.1576,0,0,0,0,0,0,-5.0864,-5.0887,-5.1058,-5.0969,-5.0988,-5.096,-5.1018,-5.1009,-5.104,-5.1024,-5.1017,-5.0998,-5.1017,-5.1032,-5.1174,-5.1284,-5.1064,-5.1073,-5.1549,-5.1561,-5.1572,-5.1764,0,0,0,0,0,0,-5.0858,-5.0886,-5.0963,-5.0972,-5.0994,-5.1187,-5.1025,-5.1016,-5.1056,-5.1039,-5.1058,-5.1054,-5.1013,-5.1161,-5.1183,-5.1293,-5.108,-5.1539,-5.1554,-5.1568,-5.1748,-5.1781,-5.1809,0,0,0,0,0,-5.0849,-5.1015,-5.0968,-5.099,-5.1089,-5.1193,-5.1206,-5.1155,-5.1066,-5.1143,-5.1132,-5.1053,-5.1268,-5.1177,-5.1201,-5.1315,-5.1532,-5.155,-5.1567,-5.1734,-5.1774,-5.1808,0,0,0,0,0,0,-5.102,-5.1015,-5.0963,-5.1136,-5.1166,-5.1167,-5.1263,-5.1199,-5.1256,-5.1238,-5.1172,-5.1178,-5.1332,-5.1337,-5.1235,-5.1512,-5.1385,-5.1408,-5.1503,-5.1542,-5.1572,-5.1568,-5.1088,0,0,0,0,0,-5.1077,-5.1162,-5.1153,-5.1307,-5.1325,-5.1292,-5.1335,-5.1294,-5.1322,-5.1335,-5.1334,-5.1366,-5.144,-5.1491,-5.1559,-5.1747,-5.1749,-5.1837,-5.1868,-5.1893,-5.1915,-5.2015,-5.2054,-5.1634,-5.1634,-5.1634,0,0,-5.1197,-5.1205,-5.1263,-5.1341,-5.136,-5.145,-5.1304,-5.1405,-5.1471,-5.135,-5.1484,-5.1485,-5.1516,-5.1682,-5.1755,-5.1691,-5.2031,-5.1916,-5.1936,-5.1944,-5.2037,-5.2077,-5.2112,-5.1646,-5.1644,-5.1642,0,0,-5.1462,-5.1477,-5.1606,-5.1628,-5.1658,-5.1634,-5.1666,-5.1677,-5.1673,-5.1806,-5.1717,-5.1795,-5.1924,-5.195,-5.198,-5.2254,-5.2183,-5.2278,-5.2439,-5.2538,-5.2571,-5.26,-5.2698,-5.2734,-5.2299,-5.2299,-5.23,0,-5.1608,-5.174,-5.1681,-5.1788,-5.1826,-5.172,-5.1851,-5.1874,-5.1925,-5.1953,-5.1881,-5.2041,-5.2054,-5.2225,-5.2292,-5.2319,-5.2353,-5.2276,-5.2571,-5.2599,-5.2625,-5.2718,-5.2756,-5.2311,-5.2309,-5.2308,-5.2307,0,-5.1917,-5.201,-5.2111,-5.2163,-5.2211,-5.233,-5.2289,-5.2345,-5.2299,-5.2284,-5.2421,-5.2432,-5.2501,-5.2538,-5.2494,-5.2703,-5.2662,-5.2581,-5.2452,-5.2678,-5.2764,-5.2799,-5.2327,-5.2323,-5.2319,-5.2317,0,0,-5.2293,-5.231,-5.2348,-5.237,-5.2395,-5.2466,-5.2579,-5.2646,-5.2695,-5.2733,-5.2827,-5.2939,-5.2865,-5.2899,-5.2856,-5.2943,-5.316,-5.2851,-5.2851,-5.2909,-5.3392,-5.3453,-5.3495,-5.3112,-5.3119,-5.3124,-5.3389,0,-5.2555,-5.275,-5.2701,-5.2895,-5.2979,-5.288,-5.2978,-5.3005,-5.2993,-5.3063,-5.305,-5.3131,-5.3026,-5.3046,-5.3127,-5.3117,-5.3256,-5.3096,-5.32,-5.3204,-5.3197,-5.354,-5.3606,-5.3855,-5.3423,-5.3428,-5.3432,0,-5.2887,-5.2938,-5.3141,-5.3152,-5.3186,-5.3276,-5.3332,-5.3401,-5.3428,-5.3413,-5.3452,-5.3392,-5.3504,-5.3374,-5.3528,-5.342,-5.3459,-5.3461,-5.3469,-5.3478,-5.3333,-5.3559,-5.3934,-5.3972,-5.3485,-5.3481,-5.3477,0,-5.3142,-5.3261,-5.3398,-5.342,-5.3435,-5.3501,-5.3511,-5.3531,-5.3574,-5.3623,-5.3651,-5.3713,-5.3747,-5.3797,-5.3756,-5.3664,-5.3917,-5.3783,-5.3908,-5.391,-5.3967,-5.3964,-5.4354,-5.3991,-5.399,-5.399,-5.3989,0,-5.3441,-5.3569,-5.3512,-5.3597,-5.3737,-5.3678,-5.3819,-5.3817,-5.3836,-5.3918,-5.3835,-5.3914,-5.3854,-5.3928,-5.3896,-5.4029,-5.4045,-5.4037,-5.4027,-5.4045,-5.4046,-5.407,-5.4053,-5.4,-5.3997,-5.3996,-5.3994,0,-5.3749,-5.3717,-5.3859,-5.3862,-5.3866,-5.3969,-5.3972,-5.405,-5.4031,-5.4137,-5.4158,-5.413,-5.4212,-5.4176,-5.4262,-5.4241,-5.4412,-5.4378,-5.4403,-5.4395,-5.4523,-5.4512,-5.4943,-5.4997,-5.4599,-5.4602,-5.4606,0,-5.3943,-5.4039,-5.4052,-5.4101,-5.4116,-5.4196,-5.424,-5.4185,-5.4234,-5.4272,-5.4346,-5.4421,-5.4478,-5.4615,-5.4603,-5.4669,-5.4637,-5.4783,-5.4646,-5.4662,-5.464,-5.4636,-5.4645,-5.4812,-5.4816,-5.482,-5.4823,0,-5.429,-5.4269,-5.4334,-5.4395,-5.4449,-5.4494,-5.4532,-5.4577,-5.4524,-5.4583,-5.4666,-5.471,-5.4799,-5.4875,-5.4933,-5.4942,-5.4875,-5.4866,-5.4899,-5.4919,-5.4929,-5.4926,-5.4479,-5.4857,-5.4853,-5.4851,-5.4849,-5.4848,-5.4547,-5.4628,-5.465,-5.4726,-5.4749,-5.4786,-5.4859,-5.485,-5.4918,-5.4986,-5.4949,-5.5047,-5.5071,-5.5142,-5.5161,-5.5236,-5.5179,-5.5226,-5.5238,-5.5251,-5.5268,-5.4916,-5.5247,-5.5245,-5.5245,-5.5244,-5.5243,0,-5.4891,-5.49,-5.497,-5.5025,-5.5085,-5.5015,-5.5053,-5.5108,-5.5195,-5.5223,-5.5281,-5.5377,-5.545,-5.5443,-5.551,-5.5572,-5.5543,-5.5592,-5.5587,-5.5591,-5.5316,-5.5281,-5.5614,-5.5614,-5.5614,-5.5614,-5.5614,-5.5614,-5.5077,-5.521,-5.5191,-5.5335,-5.5342,-5.5437,-5.5465,-5.5499,-5.5521,-5.5632,-5.5692,-5.5687,-5.5701,-5.5768,-5.5833,-5.5828,-5.5858,-5.5919,-5.5904,-5.5647,-5.561,-5.5575,-5.5542,-5.5925,-5.5926,-5.6172,-5.6174,-5.6176]},{"header":{"parameterUnit":"m.s-1","parameterCategory":1,"la1":30.2991,"la2":30.254,"lo1":-89.0895,"lo2":-89.0444,"dy":0.0017,"dx":0.0017,"nx":28,"ny":28,"refTime":"2023-09-27T09:00:00:Z","depth":0,"parameterNumber":3,"parameterNumberName":"V-component_of_WINDS"},"data":[0,0,0,0,0,0,0,0,0,0,0,0,0,0,0,0,0,0,0,0,0,0,0,0,0,0,0,0,0,0,0,0,0,0,0,0,0,0,0,0,0,0,0,0,0,0,0,0,0,0,0,0,0,0,0,0,0,0,-3.2585,-3.2585,0,-3.2605,-3.2605,-3.2606,-3.257,-3.2569,-3.2568,-3.2567,-3.2586,-3.2588,-3.2589,0,0,0,0,0,0,0,0,0,0,0,0,0,-3.2512,-3.2514,-3.2585,-3.2585,-3.2585,-3.2605,-3.2605,-3.2606,-3.257,-3.2569,-3.2568,-3.2566,-3.2586,-3.2588,-3.2589,0,0,0,0,0,0,0,0,0,0,0,0,0,-3.2539,-3.2514,-3.2585,-3.257,-3.2569,-3.2605,-3.2606,-3.2606,-3.2571,-3.2569,-3.2567,-3.2566,-3.2585,-3.2587,-3.259,-3.2641,0,0,-3.2597,-3.2598,0,0,0,0,0,0,0,0,-3.2538,-3.2542,-3.2572,-3.2571,-3.257,-3.2583,-3.2587,-3.2617,-3.2571,-3.257,-3.2567,-3.2565,-3.2587,-3.2589,-3.2596,-3.2642,-3.2642,-3.2597,-3.2599,-3.26,-3.2601,0,0,0,0,0,0,0,-3.2536,-3.2541,-3.2593,-3.2572,-3.2571,-3.2561,-3.2563,-3.2593,-3.2588,-3.257,-3.2567,-3.257,-3.2586,-3.2594,-3.2597,-3.2643,-3.2597,-3.26,-3.2601,-3.2602,-3.2728,-3.273,0,0,0,0,0,0,-3.2536,-3.2539,-3.2592,-3.2593,-3.2549,-3.2564,-3.2566,-3.2581,-3.2588,-3.2587,-3.2572,-3.2569,-3.2591,-3.2594,-3.2597,-3.2656,-3.26,-3.2602,-3.2604,-3.2726,-3.2729,-3.2731,0,0,0,0,0,0,-3.2535,-3.2541,-3.2591,-3.2566,-3.2571,-3.2567,-3.2584,-3.2582,-3.2591,-3.2589,-3.2588,-3.2582,-3.259,-3.2594,-3.263,-3.2656,-3.2603,-3.2606,-3.2724,-3.2727,-3.273,-3.2774,0,0,0,0,0,0,-3.2533,-3.2541,-3.2561,-3.2567,-3.2573,-3.2625,-3.2586,-3.2584,-3.2595,-3.2591,-3.2598,-3.2597,-3.2589,-3.2626,-3.2632,-3.2658,-3.2607,-3.2722,-3.2725,-3.2729,-3.277,-3.2778,-3.2785,0,0,0,0,0,-3.253,-3.2573,-3.2562,-3.2569,-3.2598,-3.2626,-3.263,-3.2619,-3.2598,-3.2617,-3.2616,-3.2597,-3.2652,-3.263,-3.2637,-3.2664,-3.272,-3.2724,-3.2728,-3.2767,-3.2776,-3.2785,0,0,0,0,0,0,-3.2571,-3.2573,-3.2562,-3.2608,-3.2617,-3.262,-3.2645,-3.263,-3.2645,-3.2641,-3.2626,-3.2628,-3.2667,-3.2669,-3.2644,-3.2712,-3.2682,-3.2688,-3.2709,-3.2718,-3.2726,-3.2724,-3.261,0,0,0,0,0,-3.2585,-3.2608,-3.2609,-3.2649,-3.2654,-3.2649,-3.2661,-3.2652,-3.266,-3.2664,-3.2665,-3.2674,-3.2693,-3.2706,-3.2724,-3.277,-3.277,-3.2792,-3.2799,-3.2805,-3.281,-3.2833,-3.2842,-3.2744,-3.2744,-3.2744,0,0,-3.2614,-3.2619,-3.2634,-3.2657,-3.2664,-3.2687,-3.2652,-3.2679,-3.2695,-3.2668,-3.2702,-3.2703,-3.2712,-3.2753,-3.2771,-3.2756,-3.2837,-3.2811,-3.2816,-3.2817,-3.2838,-3.2848,-3.2856,-3.2747,-3.2747,-3.2746,0,0,-3.268,-3.2686,-3.2719,-3.2726,-3.2736,-3.2731,-3.2739,-3.2745,-3.2744,-3.2778,-3.2757,-3.2776,-3.281,-3.2817,-3.2824,-3.289,-3.2873,-3.2897,-3.2934,-3.2957,-3.2964,-3.2971,-3.2993,-3.3001,-3.2901,-3.2902,-3.2902,0,-3.2715,-3.275,-3.2738,-3.2766,-3.2776,-3.2752,-3.2784,-3.2791,-3.2806,-3.2813,-3.2796,-3.2836,-3.2841,-3.2882,-3.2898,-3.2906,-3.2913,-3.2895,-3.2964,-3.2971,-3.2977,-3.2998,-3.3006,-3.2904,-3.2904,-3.2904,-3.2903,0,-3.2792,-3.2816,-3.2842,-3.2856,-3.2869,-3.2899,-3.2891,-3.2905,-3.2895,-3.2892,-3.2925,-3.2929,-3.2947,-3.2956,-3.2946,-3.2995,-3.2985,-3.2967,-3.2936,-3.2989,-3.3008,-3.3016,-3.2908,-3.2907,-3.2906,-3.2906,0,0,-3.2884,-3.2891,-3.29,-3.2905,-3.2914,-3.2932,-3.296,-3.2977,-3.2988,-3.2999,-3.3021,-3.305,-3.3032,-3.304,-3.3031,-3.3051,-3.3101,-3.303,-3.3029,-3.3041,-3.3153,-3.3167,-3.3176,-3.309,-3.3091,-3.3093,-3.3152,0,-3.2948,-3.2996,-3.2986,-3.3033,-3.3054,-3.3031,-3.3055,-3.3062,-3.306,-3.3077,-3.3074,-3.3094,-3.307,-3.3075,-3.3093,-3.3091,-3.3123,-3.3087,-3.3109,-3.311,-3.3107,-3.3186,-3.3201,-3.3257,-3.316,-3.3161,-3.3162,0,-3.3029,-3.3042,-3.3091,-3.3094,-3.3103,-3.3125,-3.3138,-3.3155,-3.3162,-3.3159,-3.3168,-3.3154,-3.318,-3.315,-3.3186,-3.3161,-3.317,-3.317,-3.3171,-3.3172,-3.3139,-3.3188,-3.3274,-3.3282,-3.3174,-3.3173,-3.3172,0,-3.3089,-3.3119,-3.3152,-3.3157,-3.3162,-3.3178,-3.318,-3.3185,-3.3196,-3.3207,-3.3213,-3.3228,-3.3236,-3.3247,-3.3237,-3.3217,-3.3274,-3.3243,-3.3271,-3.3271,-3.3283,-3.3282,-3.3371,-3.3291,-3.3291,-3.329,-3.329,0,-3.316,-3.3191,-3.3178,-3.3199,-3.3232,-3.3219,-3.3252,-3.3252,-3.3256,-3.3275,-3.3256,-3.3274,-3.326,-3.3277,-3.3269,-3.3299,-3.3303,-3.33,-3.3297,-3.3301,-3.3301,-3.3306,-3.3301,-3.3293,-3.3292,-3.3292,-3.3291,0,-3.3233,-3.3226,-3.326,-3.3261,-3.3262,-3.3286,-3.3287,-3.3305,-3.3301,-3.3325,-3.3329,-3.3323,-3.3341,-3.3333,-3.3352,-3.3347,-3.3384,-3.3377,-3.3382,-3.3379,-3.3407,-3.3404,-3.3501,-3.3512,-3.3426,-3.3427,-3.3427,0,-3.3278,-3.3301,-3.3304,-3.3316,-3.3319,-3.3338,-3.3348,-3.3336,-3.3347,-3.3355,-3.3372,-3.3389,-3.3401,-3.3431,-3.3428,-3.3442,-3.3434,-3.3467,-3.3436,-3.3438,-3.3433,-3.3431,-3.3432,-3.3473,-3.3474,-3.3475,-3.3475,0,-3.3359,-3.3354,-3.3369,-3.3383,-3.3395,-3.3406,-3.3414,-3.3424,-3.3412,-3.3425,-3.3444,-3.3453,-3.3472,-3.3489,-3.3501,-3.3502,-3.3487,-3.3485,-3.3492,-3.3495,-3.3496,-3.3495,-3.3397,-3.3483,-3.3482,-3.3481,-3.3481,-3.3481,-3.3418,-3.3437,-3.3442,-3.3459,-3.3464,-3.3472,-3.3488,-3.3486,-3.3501,-3.3515,-3.3507,-3.3528,-3.3533,-3.3547,-3.3551,-3.3567,-3.3553,-3.3564,-3.3566,-3.3569,-3.3572,-3.3495,-3.3569,-3.3569,-3.3569,-3.3568,-3.3568,0,-3.3497,-3.3499,-3.3514,-3.3526,-3.354,-3.3524,-3.3532,-3.3543,-3.3562,-3.3568,-3.358,-3.3601,-3.3616,-3.3613,-3.3627,-3.364,-3.3633,-3.3644,-3.3642,-3.3642,-3.3583,-3.3575,-3.3649,-3.3649,-3.3649,-3.3649,-3.3649,-3.3649,-3.3539,-3.3569,-3.3565,-3.3596,-3.3597,-3.3617,-3.3623,-3.363,-3.3634,-3.3658,-3.367,-3.3668,-3.367,-3.3684,-3.3697,-3.3695,-3.3701,-3.3714,-3.371,-3.3655,-3.3647,-3.3639,-3.3631,-3.3716,-3.3716,-3.3767,-3.3768,-3.3768]}]]